Change the Weather History Date:

Sunday, July 28, 2013

  Actual Average Record
Temperature  
Mean Temperature 77 °F 74 °F  
Max Temperature 85 °F 85 °F 99 °F (1941)
Min Temperature 69 °F 64 °F 46 °F (1977)
Degree Days  
Heating Degree Days 0 0  
Month to date heating degree days 0 0  
Since 1 June heating degree days 2 24  
Since 1 July heating degree days 0 0  
Cooling Degree Days 12 10  
Month to date cooling degree days 391 277  
Year to date cooling degree days 731 526  
Since 1 June cooling degree days 632 466  
Growing Degree Days 26 (Base 50)    
Moisture  
Dew Point 67 °F    
Average Humidity 76    
Maximum Humidity 97    
Minimum Humidity 55    
Precipitation  
Precipitation 0.18 in 0.14 in 3.57 in (1969)
Month to date precipitation 5.39 4.12  
Year to date precipitation 24.64 24.92  
Sea Level Pressure  
Sea Level Pressure 29.93 in    
Wind  
Wind Speed 4 mph (South)    
Max Wind Speed 13 mph    
Max Gust Speed 17 mph    
Visibility 9 miles    
Events Rain    
T = Trace of Precipitation, MM = Missing Value Source: NWS Daily Summary

Daily Weather History Graph

Daily Weather History Graph

Search for Another Location

Airport or City:

Trip Planner

Search our weather history database for the weather conditions in past years. The results will help you decide how hot, cold, wet, or windy it might be!

Date:

Astronomy

Jul. 28, 2013 Rise Set
Actual Time 5:57 AM EDT 8:22 PM EDT
Civil Twilight 5:26 AM EDT 8:53 PM EDT
Nautical Twilight 4:48 AM EDT 9:31 PM EDT
Astronomical Twilight 4:06 AM EDT 10:13 PM EDT
Moon 11:41 PM EDT (7/28) 12:39 PM EDT (7/28)
Length of Visible Light 15h 26m
Length of Day
14h 24m
Waning Gibbous, 61% of the Moon is Illuminated
Jul 28
Waning Gibbous
Jul 29
Last Quarter
Aug 6
New
Aug 14
First Quarter
Aug 20
Full

Hourly Weather History & Observations

Time (EDT) Temp. Heat Index Dew Point Humidity Pressure Visibility Wind Dir Wind Speed Gust Speed Precip Events Conditions
12:54 AM 70.0 °F - 64.9 °F 84% 29.94 in 10.0 mi SE 3.5 mph - N/A   Scattered Clouds
1:54 AM 71.1 °F - 64.0 °F 78% 29.93 in 10.0 mi SE 4.6 mph - N/A   Overcast
2:54 AM 71.1 °F - 64.0 °F 78% 29.94 in 10.0 mi SSE 5.8 mph - 0.00 in Rain Light Rain
3:54 AM 70.0 °F - 64.9 °F 84% 29.92 in 10.0 mi SE 4.6 mph - 0.01 in   Mostly Cloudy
4:54 AM 70.0 °F - 64.0 °F 81% 29.93 in 10.0 mi SSE 4.6 mph - N/A   Mostly Cloudy
5:54 AM 70.0 °F - 64.9 °F 84% 29.94 in 10.0 mi Calm Calm - 0.02 in   Scattered Clouds
6:21 AM 69.8 °F - 66.2 °F 88% 29.94 in 4.0 mi SSE 5.8 mph - 0.05 in Rain Heavy Rain
6:23 AM 69.8 °F - 66.2 °F 88% 29.94 in 2.5 mi SE 5.8 mph - 0.06 in Rain Rain
6:33 AM 69.8 °F - 66.2 °F 88% 29.94 in 4.0 mi SE 4.6 mph - 0.08 in Rain Rain
6:54 AM 69.1 °F - 66.9 °F 93% 29.95 in 4.0 mi Calm Calm - 0.10 in Rain Rain
7:14 AM 69.8 °F - 66.2 °F 88% 29.94 in 6.0 mi East 3.5 mph - 0.04 in Rain Light Rain
7:24 AM 69.8 °F - 66.2 °F 88% 29.94 in 5.0 mi Calm Calm - 0.04 in   Overcast
7:54 AM 70.0 °F - 66.9 °F 90% 29.95 in 8.0 mi Calm Calm - 0.04 in   Overcast
8:26 AM 69.8 °F - 66.2 °F 88% 29.94 in 10.0 mi SE 4.6 mph - 0.01 in   Mostly Cloudy
8:54 AM 70.0 °F - 68.0 °F 93% 29.94 in 7.0 mi Calm Calm - 0.01 in   Mostly Cloudy
9:54 AM 73.9 °F - 69.1 °F 85% 29.93 in 9.0 mi Calm Calm - N/A   Scattered Clouds
10:06 AM 73.4 °F - 69.8 °F 88% 29.92 in 10.0 mi SE 3.5 mph - N/A   Mostly Cloudy
10:14 AM 73.4 °F - 68.0 °F 83% 29.93 in 9.0 mi South 3.5 mph - N/A   Mostly Cloudy
10:43 AM 73.4 °F - 69.8 °F 88% 29.92 in 10.0 mi Calm Calm - N/A   Overcast
10:54 AM 75.0 °F - 70.0 °F 84% 29.93 in 10.0 mi SE 3.5 mph - N/A   Overcast
11:54 AM 77.0 °F - 71.1 °F 82% 29.93 in 10.0 mi SSW 3.5 mph - N/A   Mostly Cloudy
12:54 PM 75.9 °F - 71.1 °F 85% 29.93 in 10.0 mi South 4.6 mph - 0.00 in Rain Light Rain
1:12 PM 75.2 °F - 69.8 °F 83% 29.92 in 10.0 mi Calm Calm - 0.00 in   Mostly Cloudy
1:26 PM 75.2 °F - 69.8 °F 83% 29.93 in 10.0 mi SSW 3.5 mph - 0.00 in   Mostly Cloudy
1:33 PM 77.0 °F - 69.8 °F 78% 29.92 in 10.0 mi Calm Calm - 0.00 in   Overcast
1:54 PM 79.0 °F - 71.1 °F 77% 29.92 in 10.0 mi West 5.8 mph - 0.00 in   Mostly Cloudy
2:54 PM 81.0 °F 84.1 °F 69.1 °F 67% 29.90 in 10.0 mi WSW 6.9 mph - N/A   Partly Cloudy
3:54 PM 84.0 °F 87.0 °F 68.0 °F 58% 29.90 in 10.0 mi WNW 5.8 mph - N/A   Mostly Cloudy
4:54 PM 82.9 °F 85.0 °F 66.0 °F 56% 29.90 in 10.0 mi SW 8.1 mph 17.3 mph N/A   Clear
5:54 PM 82.0 °F 83.8 °F 64.9 °F 56% 29.90 in 10.0 mi WNW 6.9 mph - N/A   Clear
6:54 PM 81.0 °F 83.0 °F 66.0 °F 60% 29.91 in 10.0 mi West 4.6 mph - N/A   Partly Cloudy
7:54 PM 80.1 °F 81.9 °F 64.9 °F 60% 29.93 in 10.0 mi West 3.5 mph - N/A   Partly Cloudy
8:54 PM 77.0 °F - 68.0 °F 74% 29.93 in 10.0 mi Calm Calm - N/A   Mostly Cloudy
9:54 PM 75.0 °F - 69.1 °F 82% 29.96 in 10.0 mi SE 6.9 mph - N/A   Clear
10:54 PM 73.0 °F - 69.1 °F 87% 29.98 in 10.0 mi SE 6.9 mph - N/A   Scattered Clouds
11:54 PM 72.0 °F - 68.0 °F 87% 29.96 in 10.0 mi SSE 5.8 mph - N/A   Clear